Location: Unspecified
(0.0000°N, 0.0000°E)
Time: 06:14:09
(UTC+02:00)

ATLAS V CENTAUR R/B - Visible Passes

Search period start: 27 May 2017 00:00
Search period end: 06 June 2017 00:00
Orbit: 252 x 27908 km, 18.1° (Epoch: 26 May)

Date Brightness Start Highest point End Pass type
(mag) Time Alt. Az. Time Alt. Az. Time Alt. Az.
27 May 6.1 13:40:57 10° WSW 18:56:23 16° ENE 20:05:28 10° E visible
27 May 6.4 22:50:36 10° WNW 00:34:58 24° WNW 05:34:16 10° SE visible
28 May 6.4 13:57:42 10° WSW 19:14:10 20° ENE 20:38:29 10° E visible
28 May 6.4 23:18:46 10° WNW 00:51:05 20° WNW 05:50:55 10° SE visible
29 May 6.6 14:14:28 10° WSW 19:32:08 25° ENE 21:05:43 10° E visible
29 May 6.5 23:52:42 10° WNW 01:07:02 15° WNW 06:07:31 10° SE visible
30 May 6.8 14:31:14 10° WSW 19:50:18 30° ENE 21:29:56 10° E visible
31 May 6.3 00:45:21 10° WNW 01:22:49 11° WNW 06:24:02 10° SSE visible
31 May 7.1 14:48:02 10° W 20:08:45 35° ENE 21:52:18 10° E visible
01 Jun 6.0 06:32:30 24° SW 06:35:23 26° SW 06:40:28 10° SSE visible
01 Jun 7.3 15:04:51 10° W 20:27:27 40° ENE 22:08:45 15° E visible
02 Jun 6.0 06:48:58 18° SW 06:52:28 21° SW 06:56:48 10° SSE visible
02 Jun 7.6 15:21:40 10° W 20:46:28 45° ENE 22:24:32 20° E visible
03 Jun 5.8 07:05:24 13° WSW 07:09:33 16° SSW 07:13:00 10° S visible
03 Jun 7.8 15:38:31 10° W 21:05:53 50° ENE 22:40:19 25° E visible
04 Jun 5.7 07:22:53 10° SW 07:26:37 12° SSW 07:28:53 10° S visible
04 Jun 8.0 15:55:25 10° W 21:25:50 55° ENE 22:56:05 31° E visible
05 Jun 8.3 16:12:20 10° W 21:46:28 60° ENE 23:11:51 37° E visible
